Flag for Germany Weather past 2 weeks in Schwäbisch Hall, Baden-Württemberg, Germany

Now
44 °F

Clear.


Feels Like: 44 °F
Forecast: 39 / 66 °F
Wind: 1 mph from North

Location: Oehringen

Current Time: Apr 20, 2015 at 2:47:26 AM

Latest Report: Apr 20, 2015 at 2:00 AM


Visibility: 17 mi

Pressure: 30.23 "Hg

Humidity: 63%

Dew point: 31 °F

Location of Schwäbisch HallLocation

Historic Weather in Schwäbisch Hall — Graph

°F

Schwäbisch Hall temperature yesterday

Maximum temperature yesterday: 62 °F (at 4:00 PM)
Minimum temperature yesterday: 35 °F (at 6:00 AM)
Average temperature yesterday: 49 °F

Past Weeks' High & Low Weather Summary

 TemperatureHumidityPressure
High78 °F (Apr 15, 5:00 PM)94% (Apr 12, 8:00 AM)30.66 "Hg (Apr 12, 8:00 AM)
Low28 °F (Apr 7, 7:00 AM)19% (Apr 15, 7:00 PM)29.86 "Hg (Apr 16, 8:00 PM)
Average51 °F59%30.26 "Hg
* Reported Apr 5 1:00 AM — Apr 20 1:00 AM, Schwäbisch Hall, Weather by CustomWeather, © 2015

Note: Actual official high and low records may vary slightly from our data, if they occured in-between our weather recording intervals... More about our weather records

Advertising

Schwäbisch Hall weather history for previous 24 hours

 ConditionsComfort  
Time TempWeatherWind HumidityBarometerVisibility
1:00 AM
Mon, Apr 20
42 °FClear.2 mph66%30.22 "Hg17 mi
12:00 AM44 °FClear.2 mph61%30.21 "Hg18 mi
11:00 PM
Sun, Apr 19
47 °FClear.2 mph54%30.18 "Hg22 mi
10:00 PM50 °FClear.2 mph47%30.16 "Hg25 mi
9:00 PM54 °FClear.5 mph39%30.14 "Hg25 mi
8:00 PM58 °FSunny.3 mph35%30.11 "Hg28 mi
7:00 PM62 °FSunny.3 mph30%30.09 "Hg28 mi
6:00 PM62 °FSunny.5 mph26%30.08 "Hg22 mi
5:00 PM62 °FSunny.5 mph28%30.08 "Hg28 mi
4:00 PM62 °FPartly sunny.5 mph28%30.09 "Hg19 mi
3:00 PM61 °FSunny.5 mph30%30.10 "Hg25 mi
2:00 PM60 °FSunny.6 mph31%30.11 "Hg25 mi
1:00 PM58 °FSunny.6 mph35%30.13 "Hg12 mi
12:00 PM54 °FSunny.6 mph34%30.14 "Hg34 mi
11:00 AM52 °FSunny.7 mph37%30.16 "Hg22 mi
10:00 AM49 °FScattered clouds.5 mph43%30.16 "Hg19 mi
9:00 AM45 °FSunny.5 mph52%30.18 "Hg17 mi
8:00 AM40 °FSunny.3 mph59%30.19 "Hg19 mi
7:00 AM36 °FSunny.2 mph70%30.20 "Hg17 mi
6:00 AM35 °FClear.2 mph71%30.20 "Hg17 mi
5:00 AM36 °FClear.3 mph70%30.21 "Hg16 mi
4:00 AM37 °FClear.2 mph69%30.22 "Hg17 mi
3:00 AM37 °FClear.1 mph69%30.24 "Hg17 mi
2:00 AM38 °FClear.1 mph68%30.26 "Hg19 mi
Weather by CustomWeather, © 2015

See weather overviewHow to use our weather pages